Tracking 19625 objects as of 26-May-2019
HD Live streaming from Space Station
objects crossing your sky now
Watch Starlink satellites crossing your sky!

BEIDOU G6

Track BEIDOU G6 now!
BEIDOU G6 is classified as:


NORAD ID: 38953
Int'l Code: 2012-059A
Perigee: 35,777.6 km
Apogee: 35,811.5 km
Inclination: 1.8 °
Period: 1,436.1 minutes
Semi major axis: 42165 km
RCS: 8.3985 m2 (large)
Launch date: October 25, 2012
Source: People's Republic of China (PRC)
Launch site: Xichang Space Center, China (XSC)

BEIDOU G6 it the 16th satellite part of China's Beidou navigation system.
aabbcc
Your satellite tracking list
Your tracking list is empty




NASA's NSSDC Master Catalog

Two Line Element Set (TLE):
1 38953U 12059A   19145.92964269 -.00000177 +00000-0 +00000-0 0  9998
2 38953 001.8275 083.1384 0004026 236.2983 342.4034 01.00268859024189
Source of the keplerian elements: AFSPC